Wind_Speed
15 14 16 17 18 19 20 20 19 18 17 16 18 17 15 14 14 12 14 13 11 12 10 9 10 9 11 14 12 14 13 14 15 15 15 16 16 17 18 19 21 21 22 24 26
17 16 16 18 18 18 18 19 18 17 16 17 18 17 15 15 15 14 14 14 13 12 12 10 11 10 11 13 14 14 14 15 17 16 16 17 17 18 19 21 22 22 23 25 27
19 19 21 19 17 17 16 17 17 16 16 17 17 16 16 17 16 15 15 15 16 14 16 12 13 12 12 14 14 15 16 17 18 17 16 17 17 17 19 21 23 24 26 28 29
19 21 20 19 18 17 17 18 17 17 17 17 17 17 17 18 17 17 17 16 17 16 17 15 15 16 15 16 17 18 17 18 19 18 16 16 17 17 19 21 24 27 28 29 31
22 23 21 20 19 18 18 19 19 19 18 18 19 18 19 19 18 18 18 17 18 18 18 18 18 19 17 18 20 19 19 19 19 18 16 16 17 18 19 22 25 28 29 30 32
24 23 22 21 20 21 21 22 21 21 21 21 21 20 19 19 19 19 19 19 19 20 20 21 21 20 21 20 20 20 20 20 20 19 17 18 17 19 21 23 26 28 29 29 31
27 26 23 22 22 22 22 22 23 24 24 24 23 23 22 21 21 20 20 19 20 20 20 22 23 23 23 23 21 21 21 21 20 19 19 19 18 21 23 24 26 26 29 31 33
32 28 26 24 24 23 22 23 24 24 26 26 26 28 26 24 23 22 21 20 20 20 21 23 24 24 24 23 23 22 22 22 21 20 19 19 19 22 24 25 26 27 30 33 35
38 34 29 26 24 25 25 26 25 25 26 28 30 30 29 27 26 25 25 24 23 23 22 23 24 25 24 23 23 21 23 23 22 20 20 20 20 23 25 25 26 29 31 35 38
41 39 36 33 29 26 25 23 24 25 27 28 31 33 31 33 33 30 29 29 27 26 25 25 25 25 24 23 22 22 24 24 23 21 21 21 21 23 25 26 28 30 34 37 39
43 43 41 37 35 32 30 29 27 26 26 27 27 28 32 35 35 34 34 32 30 28 27 27 26 26 24 24 23 23 25 25 23 22 21 21 22 23 25 27 30 33 36 39 41
47 45 44 42 40 38 35 34 34 31 32 32 30 29 28 29 34 37 38 35 33 31 30 29 28 28 26 25 25 24 25 25 25 23 22 22 21 24 27 30 32 35 38 41 43
48 48 48 46 44 41 39 38 37 37 39 36 33 31 30 29 30 32 36 36 35 33 32 32 30 30 28 27 26 25 25 26 26 24 23 26 24 25 29 32 35 38 40 43 45
50 49 49 49 48 45 40 40 40 41 45 41 36 31 30 29 27 29 32 34 36 35 33 34 32 31 30 29 28 27 26 27 27 27 26 28 32 24 31 34 37 39 42 44 46
54 51 51 55 46 44 41 42 44 46 48 43 33 30 29 29 24 27 29 31 33 37 35 34 33 33 31 30 29 27 28 29 29 29 30 28 35 32 34 36 38 42 43 45 47
57 53 50 52 48 48 48 48 48 50 57 42 29 27 28 26 25 24 28 31 32 35 37 35 35 34 32 32 31 29 30 31 31 31 34 33 36 35 36 39 40 43 46 46 46
61 56 54 52 49 51 50 50 51 57 50 41 33 31 32 29 27 26 28 29 31 33 35 34 34 34 34 33 32 31 32 32 35 33 36 37 38 35 39 41 42 44 47 46 47
63 60 57 57 53 54 53 53 56 54 51 40 36 34 32 30 28 27 27 27 28 28 30 32 33 32 31 31 33 34 33 33 39 39 39 38 38 38 40 43 42 46 47 48 47
68 66 62 59 58 59 56 58 57 50 48 40 38 35 36 33 30 29 28 28 27 27 31 29 30 30 32 34 35 33 33 36 39 40 41 40 40 38 42 44 44 46 48 48 47
70 69 67 65 64 62 60 59 59 53 50 42 38 39 40 35 33 30 30 27 26 27 28 31 33 33 34 36 36 36 38 38 37 42 42 41 42 38 41 44 45 47 48 47 47
74 75 74 71 71 67 67 63 59 55 49 47 43 41 44 38 36 32 34 29 30 30 32 33 36 36 37 37 37 39 38 37 39 42 42 44 43 38 42 45 47 47 48 48 49
81 82 80 79 76 67 66 62 58 58 52 49 46 42 43 39 38 38 36 32 30 32 33 35 41 40 42 41 42 39 36 37 40 43 45 46 43 40 42 47 48 48 47 48 49
75 86 84 86 79 72 69 67 64 61 58 49 48 44 45 43 43 40 38 34 33 32 35 35 42 43 46 47 46 42 38 38 39 44 46 45 41 39 43 48 50 48 46 47 47
74 84 90 87 81 75 73 70 67 62 58 50 49 48 48 48 44 42 41 38 37 38 36 36 41 41 42 44 45 47 46 42 44 47 41 41 41 36 44 50 49 47 44 46 44
84 85 82 82 80 85 79 74 68 65 60 55 51 55 50 49 47 46 45 40 39 41 43 42 40 40 38 40 41 47 49 50 48 40 47 38 46 38 43 46 47 47 45 43 42
92 88 83 77 74 78 82 74 66 66 65 59 51 53 53 50 46 43 43 46 43 42 45 45 45 41 42 43 42 47 45 41 39 43 43 43 44 36 42 47 48 46 41 41 41
95 90 82 79 79 76 76 75 73 70 66 61 56 57 55 52 48 47 48 51 45 44 45 46 46 43 46 42 45 53 39 35 39 40 40 44 39 45 45 47 46 42 38 38 40
Wind_Direction
246 242 239 239 239 240 244 246 243 241 243 252 256 252 247 240 240 238 245 250 258 264 262 266 287 292 300 306 311 306 310 310 317 318 317 318 326 330 329 329 331 333 328 325 324
245 243 248 241 241 242 243 246 244 244 247 250 254 251 244 242 238 239 247 255 261 263 250 257 278 283 294 305 308 303 303 306 311 316 315 317 321 325 330 333 333 332 329 326 323
246 237 235 237 241 241 241 245 244 247 250 250 248 246 244 243 242 243 248 254 262 261 248 253 269 275 287 299 309 305 302 302 305 310 314 319 320 324 330 331 331 332 329 327 323
248 237 235 232 231 235 240 243 246 246 249 252 249 246 245 245 243 248 250 252 259 261 250 254 265 273 283 294 297 301 301 297 300 306 311 318 318 322 326 326 327 327 325 325 322
244 243 236 235 235 233 239 243 243 249 251 252 254 249 247 248 251 253 254 254 258 260 254 253 262 270 276 288 293 294 296 295 297 302 307 313 315 319 320 322 325 324 324 325 322
246 240 240 240 239 238 239 240 244 249 251 252 255 251 251 251 253 255 256 258 260 262 258 256 260 267 276 284 292 293 288 291 295 298 302 310 310 315 316 317 321 323 323 319 318
246 241 238 238 240 242 245 248 249 248 251 253 255 254 253 256 258 260 260 260 260 262 261 259 263 268 274 281 288 288 285 286 291 291 300 303 305 313 313 315 318 318 317 316 316
239 242 239 240 243 245 248 252 252 252 254 256 256 260 259 260 260 261 261 260 261 262 264 264 265 268 274 280 286 286 281 284 287 291 297 299 304 308 309 312 315 314 314 314 314
237 236 237 237 240 246 245 249 252 253 256 256 257 255 260 262 263 262 262 264 265 265 266 267 267 268 273 279 283 279 278 280 284 288 293 296 301 306 307 308 311 312 312 312 314
238 236 235 235 237 240 245 243 248 252 256 259 259 262 259 260 265 266 265 265 265 267 267 266 267 269 271 276 279 274 275 277 281 286 293 296 303 307 307 306 307 309 311 314 315
235 239 237 236 237 240 244 247 250 253 256 259 264 266 266 263 261 259 262 263 264 266 267 266 266 269 270 274 273 270 271 275 278 284 288 293 303 306 306 305 306 309 312 314 315
234 238 240 239 238 240 243 249 253 256 258 261 264 270 277 272 266 261 259 261 261 261 263 264 265 267 270 271 269 266 270 274 277 279 283 291 300 307 307 307 309 312 313 314 314
233 238 241 241 242 243 244 247 252 257 260 259 263 269 275 275 267 260 257 258 259 258 260 262 264 267 269 270 267 265 268 272 277 279 283 291 298 305 308 309 311 312 314 314 314
233 237 241 243 242 240 243 247 252 257 261 259 263 267 273 275 268 263 260 256 256 255 256 258 261 264 267 268 265 264 268 273 274 277 283 290 296 304 307 309 312 314 313 314 315
233 236 242 246 242 241 241 244 249 253 259 258 263 264 268 269 269 262 257 255 254 255 252 254 257 261 264 267 264 261 264 267 268 275 280 288 293 300 303 307 312 315 314 314 316
233 235 238 242 241 240 242 246 248 252 253 255 257 260 263 266 268 263 257 256 253 255 254 254 256 259 264 262 259 260 263 266 270 278 282 290 292 300 303 306 310 316 315 315 315
234 232 236 239 240 239 239 242 246 248 252 254 257 256 260 266 266 268 265 262 256 255 258 258 259 258 257 256 256 258 261 269 275 278 284 288 290 302 304 308 312 314 314 314 314
236 235 235 237 238 237 237 239 243 250 252 254 254 255 257 259 263 266 265 265 263 261 259 258 257 257 255 253 254 257 263 270 278 283 286 287 293 304 306 310 312 312 313 315 314
233 235 234 233 236 239 236 242 244 249 252 250 252 250 251 254 260 260 264 265 264 261 263 261 259 256 254 254 257 261 266 271 278 282 284 286 293 300 308 309 310 310 312 314 315
233 234 234 233 232 235 237 243 244 245 250 250 247 251 248 252 256 259 260 261 264 265 265 263 257 252 252 256 260 268 270 274 278 280 283 287 290 302 309 306 307 309 311 313 315
232 233 231 230 230 231 240 241 244 246 247 247 242 248 246 248 253 258 257 260 262 263 261 262 262 259 258 261 263 266 273 275 276 277 283 284 290 305 308 303 308 310 310 313 314
231 233 231 229 230 237 240 243 246 247 245 245 243 246 246 245 247 254 258 259 261 263 263 259 262 261 261 261 263 266 269 272 275 277 275 281 294 309 302 302 305 308 309 311 311
236 234 233 231 230 234 239 241 242 242 243 241 242 243 244 242 245 249 256 260 258 257 261 265 266 265 267 267 264 265 266 270 273 272 277 286 302 307 302 300 304 308 308 308 309
235 235 232 233 234 234 238 240 244 244 246 243 242 242 241 242 244 249 252 257 258 259 262 262 265 266 269 271 267 264 264 266 269 271 284 289 300 305 298 297 301 304 306 305 310
232 233 238 235 235 236 237 239 241 245 242 244 241 244 241 243 247 248 250 254 258 260 260 261 263 265 265 264 267 265 265 262 266 277 280 300 294 303 292 293 299 304 302 305 310
232 234 236 238 238 238 238 240 246 247 247 246 247 248 246 245 248 254 254 252 253 257 258 261 262 263 264 262 264 266 265 268 274 279 290 294 297 294 290 296 298 299 301 305 310
225 228 233 236 238 238 235 236 240 245 248 248 246 247 245 247 246 250 251 250 253 256 255 255 257 262 263 265 264 263 271 275 279 286 291 292 296 293 294 292 295 297 300 304 308
Height
5807 5809 5811 5814 5815 5816 5818 5819 5820 5821 5823 5824 5825 5825 5826 5826 5827 5826 5828 5829 5829 5829 5829 5830 5830 5829 5829 5829 5826 5825 5824 5821 5820 5819 5818 5816 5814 5811 5809 5807 5805 5802 5800 5797 5795
5804 5806 5808 5810 5810 5812 5814 5816 5817 5818 5819 5820 5822 5822 5823 5824 5825 5824 5826 5827 5826 5826 5827 5827 5828 5827 5827 5826 5824 5822 5821 5819 5818 5817 5816 5815 5812 5809 5808 5806 5803 5800 5797 5794 5791
5801 5803 5804 5805 5807 5808 5810 5813 5814 5815 5816 5817 5818 5819 5820 5821 5822 5821 5822 5823 5824 5823 5824 5824 5825 5824 5824 5823 5822 5820 5818 5817 5815 5814 5813 5812 5810 5807 5805 5803 5801 5798 5794 5791 5788
5798 5799 5801 5802 5802 5804 5806 5809 5811 5813 5814 5814 5815 5815 5817 5818 5819 5818 5819 5819 5820 5820 5820 5821 5821 5822 5821 5820 5819 5817 5816 5814 5812 5811 5810 5809 5807 5804 5802 5800 5797 5794 5791 5787 5784
5794 5796 5797 5798 5798 5799 5802 5805 5807 5809 5810 5811 5812 5812 5813 5814 5815 5814 5815 5815 5816 5816 5817 5817 5818 5818 5817 5816 5815 5814 5813 5811 5809 5808 5807 5805 5803 5802 5799 5796 5793 5790 5787 5783 5780
5791 5791 5792 5794 5795 5795 5797 5800 5802 5805 5805 5807 5808 5809 5810 5811 5810 5810 5810 5811 5812 5813 5813 5814 5814 5813 5814 5812 5812 5810 5809 5807 5806 5805 5803 5802 5800 5798 5795 5792 5789 5786 5783 5780 5776
5786 5787 5788 5789 5790 5791 5793 5795 5798 5800 5801 5802 5804 5805 5806 5807 5806 5807 5807 5807 5808 5809 5808 5809 5809 5810 5809 5808 5807 5806 5805 5803 5802 5801 5799 5798 5796 5794 5791 5788 5785 5782 5779 5775 5771
5779 5782 5783 5784 5785 5787 5788 5791 5792 5795 5797 5798 5799 5801 5802 5801 5802 5802 5803 5804 5804 5804 5805 5805 5804 5805 5804 5803 5802 5801 5800 5798 5797 5796 5795 5794 5792 5789 5787 5784 5781 5779 5776 5771 5766
5772 5775 5776 5778 5778 5781 5782 5785 5786 5788 5791 5793 5794 5795 5797 5796 5797 5798 5799 5799 5799 5800 5799 5800 5800 5800 5799 5798 5798 5796 5794 5793 5793 5792 5790 5789 5787 5784 5782 5779 5777 5774 5770 5766 5761
5765 5767 5769 5771 5773 5775 5777 5778 5780 5782 5785 5785 5787 5790 5791 5791 5791 5792 5793 5794 5794 5794 5794 5794 5794 5794 5794 5793 5793 5791 5789 5788 5788 5787 5786 5784 5783 5780 5777 5774 5771 5769 5764 5759 5755
5755 5760 5762 5763 5767 5769 5771 5774 5777 5778 5778 5779 5781 5781 5782 5783 5784 5785 5785 5787 5787 5788 5788 5788 5788 5789 5788 5788 5787 5786 5784 5784 5783 5782 5781 5779 5777 5775 5772 5768 5765 5763 5759 5754 5748
5746 5750 5755 5756 5758 5762 5764 5767 5769 5772 5771 5772 5773 5774 5775 5774 5775 5776 5778 5779 5780 5781 5782 5782 5782 5783 5783 5783 5782 5781 5780 5779 5778 5776 5776 5773 5773 5770 5767 5763 5760 5757 5752 5747 5741
5735 5740 5745 5749 5751 5755 5758 5760 5761 5763 5763 5763 5765 5767 5767 5766 5766 5767 5769 5770 5772 5773 5775 5775 5777 5776 5776 5776 5776 5776 5775 5773 5773 5772 5771 5768 5768 5765 5761 5758 5754 5750 5745 5739 5734
5725 5730 5735 5739 5743 5745 5750 5751 5753 5754 5751 5756 5757 5760 5760 5759 5759 5759 5760 5763 5763 5766 5767 5767 5769 5770 5770 5770 5770 5770 5770 5769 5767 5766 5765 5763 5760 5762 5755 5751 5748 5743 5738 5732 5726
5715 5719 5724 5730 5735 5738 5741 5741 5743 5745 5739 5746 5752 5752 5753 5753 5753 5752 5752 5754 5755 5758 5759 5762 5762 5762 5763 5764 5764 5765 5763 5761 5760 5758 5757 5758 5753 5755 5749 5744 5741 5737 5731 5725 5719
5705 5709 5712 5720 5725 5728 5729 5732 5733 5733 5722 5735 5744 5745 5745 5745 5746 5746 5745 5747 5747 5750 5751 5752 5754 5756 5758 5757 5757 5758 5756 5755 5754 5754 5751 5750 5747 5747 5742 5737 5734 5729 5722 5717 5712
5691 5695 5702 5709 5714 5716 5717 5719 5719 5710 5719 5729 5736 5737 5738 5739 5739 5739 5740 5741 5740 5741 5745 5746 5747 5748 5749 5750 5751 5751 5750 5749 5747 5748 5745 5742 5739 5741 5735 5730 5726 5721 5715 5709 5703
5680 5682 5688 5696 5701 5703 5705 5705 5698 5699 5710 5723 5728 5729 5731 5731 5733 5733 5733 5734 5735 5736 5738 5738 5740 5741 5744 5744 5743 5743 5744 5745 5739 5738 5736 5734 5733 5733 5727 5722 5718 5713 5707 5702 5695
5662 5667 5673 5680 5685 5691 5691 5686 5684 5695 5703 5714 5719 5720 5721 5724 5726 5726 5727 5727 5729 5730 5733 5732 5733 5735 5736 5736 5737 5739 5739 5737 5734 5730 5727 5726 5725 5726 5720 5714 5709 5705 5699 5693 5687
5646 5654 5661 5667 5670 5674 5674 5672 5676 5686 5692 5704 5710 5711 5712 5716 5718 5718 5719 5722 5723 5723 5724 5726 5726 5726 5728 5728 5730 5731 5732 5730 5728 5722 5720 5718 5715 5718 5713 5706 5702 5697 5691 5686 5680
5628 5634 5645 5648 5652 5653 5654 5656 5668 5676 5683 5693 5698 5701 5702 5709 5710 5712 5711 5715 5716 5717 5717 5719 5719 5722 5721 5723 5722 5722 5722 5723 5720 5716 5713 5709 5708 5711 5705 5697 5693 5689 5683 5678 5672
5610 5614 5624 5626 5632 5641 5645 5649 5661 5667 5672 5679 5688 5693 5695 5700 5702 5702 5704 5706 5709 5710 5710 5710 5708 5711 5712 5713 5712 5713 5715 5714 5710 5708 5703 5701 5703 5704 5696 5690 5685 5681 5675 5670 5665
5593 5597 5600 5606 5615 5625 5633 5640 5644 5650 5657 5668 5676 5682 5686 5689 5690 5693 5696 5700 5701 5702 5701 5704 5699 5701 5701 5704 5705 5704 5705 5704 5703 5698 5695 5695 5698 5695 5688 5681 5676 5672 5667 5662 5657
5574 5573 5579 5588 5608 5613 5620 5626 5633 5639 5648 5657 5664 5669 5673 5677 5682 5684 5687 5691 5693 5693 5693 5692 5691 5692 5693 5692 5694 5694 5695 5695 5693 5688 5692 5689 5688 5689 5680 5671 5667 5663 5660 5654 5649
5548 5549 5564 5577 5588 5595 5603 5614 5623 5629 5633 5643 5651 5653 5663 5667 5671 5673 5677 5682 5683 5683 5682 5683 5682 5683 5683 5683 5682 5678 5679 5682 5682 5687 5679 5687 5675 5681 5669 5662 5658 5655 5651 5647 5641
5527 5536 5551 5568 5573 5580 5590 5607 5614 5618 5622 5630 5641 5648 5651 5656 5661 5665 5668 5668 5669 5672 5673 5674 5671 5673 5673 5672 5672 5666 5667 5673 5677 5675 5674 5671 5669 5662 5658 5653 5649 5646 5643 5637 5634
5506 5524 5537 5546 5552 5560 5574 5595 5598 5607 5614 5621 5630 5633 5639 5646 5650 5652 5653 5654 5658 5659 5662 5663 5663 5664 5661 5663 5661 5653 5666 5668 5665 5665 5666 5660 5661 5652 5648 5643 5640 5638 5633 5630 5626